Time,TemperatureF,DewpointF,PressureIn,WindDirection,WindDirectionDegrees,WindSpeedMPH,WindSpeedGustMPH,Humidity,HourlyPrecipIn,Conditions,Clouds,dailyrainin,SoftwareType,DateUTC
2013-11-27 00:00:00,69.4,68.8,29.71,North,32767,2.0,2.0,98,0.07,,,0.00,Wunderground v.1.15,2013-11-27 05:00:00,
2013-11-27 00:05:00,69.4,69.1,29.71,North,32767,1.0,8.0,99,0.06,,,0.00,Wunderground v.1.15,2013-11-27 05:05:00,
2013-11-27 00:10:00,69.4,69.1,29.71,North,32767,1.0,1.0,99,0.04,,,0.00,Wunderground v.1.15,2013-11-27 05:10:00,
2013-11-27 00:15:00,69.4,69.1,29.70,North,32767,1.0,2.0,99,0.00,,,0.00,Wunderground v.1.15,2013-11-27 05:15:00,
2013-11-27 00:20:00,69.4,69.1,29.69,North,32767,1.0,1.0,99,0.00,,,0.00,Wunderground v.1.15,2013-11-27 05:20:00,
2013-11-27 00:25:00,69.4,69.1,29.69,North,32767,1.0,1.0,99,0.00,,,0.00,Wunderground v.1.15,2013-11-27 05:25:00,
2013-11-27 00:35:00,69.4,69.1,29.68,North,32767,1.0,1.0,99,0.00,,,0.00,Wunderground v.1.15,2013-11-27 05:35:00,
2013-11-27 00:40:00,69.4,69.1,29.68,North,32767,1.0,1.0,99,0.00,,,0.00,Wunderground v.1.15,2013-11-27 05:40:00,
2013-11-27 00:45:00,69.4,69.1,29.67,North,32767,1.0,1.0,99,0.00,,,0.00,Wunderground v.1.15,2013-11-27 05:45:00,
2013-11-27 00:55:00,69.4,69.1,29.66,North,32767,2.0,2.0,99,0.00,,,0.00,Wunderground v.1.15,2013-11-27 05:55:00,
2013-11-27 01:05:00,69.4,69.1,29.66,North,32767,2.0,3.0,99,0.00,,,0.00,Wunderground v.1.15,2013-11-27 06:05:00,
2013-11-27 01:15:00,69.4,69.1,29.66,North,32767,2.0,7.0,99,0.00,,,0.00,Wunderground v.1.15,2013-11-27 06:15:00,
2013-11-27 01:25:00,69.4,69.1,29.67,North,32767,3.0,7.0,99,0.00,,,0.00,Wunderground v.1.15,2013-11-27 06:25:00,
2013-11-27 01:35:00,69.3,69.0,29.66,North,32767,1.0,5.0,99,0.00,,,0.00,Wunderground v.1.15,2013-11-27 06:35:00,
2013-11-27 01:40:00,69.3,69.0,29.67,North,32767,3.0,3.0,99,0.00,,,0.00,Wunderground v.1.15,2013-11-27 06:40:00,
2013-11-27 01:50:00,69.3,69.0,29.67,North,32767,3.0,5.0,99,0.00,,,0.00,Wunderground v.1.15,2013-11-27 06:50:00,
2013-11-27 01:55:00,69.3,68.7,29.67,North,32767,4.0,5.0,98,0.00,,,0.00,Wunderground v.1.15,2013-11-27 06:55:00,
2013-11-27 02:05:00,69.3,68.7,29.66,North,32767,3.0,8.0,98,0.00,,,0.00,Wunderground v.1.15,2013-11-27 07:05:00,
2013-11-27 02:10:00,69.2,68.6,29.66,North,32767,2.0,8.0,98,0.00,,,0.00,Wunderground v.1.15,2013-11-27 07:10:00,
2013-11-27 02:20:00,69.1,68.5,29.65,North,32767,2.0,2.0,98,0.00,,,0.00,Wunderground v.1.15,2013-11-27 07:20:00,
2013-11-27 02:25:00,69.1,68.5,29.65,North,32767,2.0,2.0,98,0.00,,,0.00,Wunderground v.1.15,2013-11-27 07:25:00,
2013-11-27 02:35:00,69.2,68.6,29.66,North,32767,2.0,2.0,98,0.60,,,0.03,Wunderground v.1.15,2013-11-27 07:35:00,
2013-11-27 02:40:00,69.2,68.6,29.66,North,32767,3.0,3.0,98,0.35,,,0.05,Wunderground v.1.15,2013-11-27 07:40:00,
2013-11-27 02:50:00,68.8,68.2,29.66,North,32767,5.0,5.0,98,0.11,,,0.10,Wunderground v.1.15,2013-11-27 07:50:00,
2013-11-27 03:00:00,68.5,67.6,29.66,North,32767,4.0,4.0,97,0.04,,,0.10,Wunderground v.1.15,2013-11-27 08:00:00,
2013-11-27 03:10:00,67.8,66.6,29.67,North,32767,5.0,12.0,96,0.00,,,0.10,Wunderground v.1.15,2013-11-27 08:10:00,
2013-11-27 03:20:00,66.9,65.7,29.67,North,32767,5.0,12.0,96,0.00,,,0.10,Wunderground v.1.15,2013-11-27 08:20:00,
2013-11-27 03:30:00,65.6,64.1,29.68,North,32767,5.0,5.0,95,0.00,,,0.10,Wunderground v.1.15,2013-11-27 08:30:00,
2013-11-27 03:40:00,64.5,63.0,29.68,North,32767,5.0,5.0,95,0.00,,,0.10,Wunderground v.1.15,2013-11-27 08:40:00,
2013-11-27 03:45:00,64.2,62.7,29.68,North,32767,4.0,10.0,95,0.00,,,0.10,Wunderground v.1.15,2013-11-27 08:45:00,
2013-11-27 03:55:00,63.7,61.9,29.67,North,32767,4.0,6.0,94,0.00,,,0.10,Wunderground v.1.15,2013-11-27 08:55:00,
2013-11-27 04:00:00,63.2,61.4,29.68,North,32767,3.0,4.0,94,0.00,,,0.10,Wunderground v.1.15,2013-11-27 09:00:00,
2013-11-27 04:10:00,62.7,61.2,29.68,North,32767,3.0,16.0,95,0.00,,,0.10,Wunderground v.1.15,2013-11-27 09:10:00,
2013-11-27 04:20:00,62.3,60.8,29.68,North,32767,4.0,4.0,95,0.00,,,0.10,Wunderground v.1.15,2013-11-27 09:20:00,
2013-11-27 04:30:00,62.0,60.3,29.69,North,32767,4.0,4.0,94,0.00,,,0.10,Wunderground v.1.15,2013-11-27 09:30:00,
2013-11-27 04:40:00,61.8,60.4,29.69,North,32767,3.0,3.0,95,0.00,,,0.10,Wunderground v.1.15,2013-11-27 09:40:00,
2013-11-27 04:50:00,61.6,60.2,29.70,North,32767,3.0,3.0,95,0.00,,,0.10,Wunderground v.1.15,2013-11-27 09:50:00,
2013-11-27 04:55:00,61.6,60.2,29.70,North,32767,3.0,6.0,95,0.00,,,0.10,Wunderground v.1.15,2013-11-27 09:55:00,
2013-11-27 05:05:00,61.5,59.8,29.70,North,32767,6.0,11.0,94,0.00,,,0.10,Wunderground v.1.15,2013-11-27 10:05:00,
2013-11-27 05:15:00,61.5,59.8,29.71,North,32767,4.0,8.0,94,0.00,,,0.10,Wunderground v.1.15,2013-11-27 10:15:00,
2013-11-27 05:25:00,61.4,59.7,29.72,North,32767,3.0,11.0,94,0.00,,,0.10,Wunderground v.1.15,2013-11-27 10:25:00,
2013-11-27 05:35:00,60.7,57.4,29.73,North,32767,7.0,8.0,89,0.00,,,0.10,Wunderground v.1.15,2013-11-27 10:35:00,
2013-11-27 05:40:00,60.2,56.9,29.73,North,32767,6.0,10.0,89,0.00,,,0.10,Wunderground v.1.15,2013-11-27 10:40:00,
2013-11-27 05:50:00,59.4,56.2,29.74,North,32767,6.0,7.0,89,0.00,,,0.10,Wunderground v.1.15,2013-11-27 10:50:00,
2013-11-27 05:55:00,58.9,55.7,29.74,North,32767,5.0,7.0,89,0.00,,,0.10,Wunderground v.1.15,2013-11-27 10:55:00,
2013-11-27 06:00:00,58.5,55.6,29.75,North,32767,5.0,7.0,90,0.00,,,0.10,Wunderground v.1.15,2013-11-27 11:00:00,
2013-11-27 06:10:00,58.1,55.5,29.75,North,32767,4.0,9.0,91,0.00,,,0.10,Wunderground v.1.15,2013-11-27 11:10:00,
2013-11-27 06:15:00,57.9,55.3,29.75,North,32767,4.0,9.0,91,0.00,,,0.10,Wunderground v.1.15,2013-11-27 11:15:00,
2013-11-27 06:25:00,57.7,55.1,29.76,North,32767,6.0,6.0,91,0.00,,,0.10,Wunderground v.1.15,2013-11-27 11:25:00,
2013-11-27 06:35:00,57.5,54.9,29.78,North,32767,4.0,7.0,91,0.00,,,0.10,Wunderground v.1.15,2013-11-27 11:35:00,
2013-11-27 06:40:00,57.0,54.1,29.78,North,32767,4.0,4.0,90,0.00,,,0.10,Wunderground v.1.15,2013-11-27 11:40:00,
2013-11-27 06:50:00,56.2,53.0,29.79,North,32767,5.0,5.0,89,0.00,,,0.10,Wunderground v.1.15,2013-11-27 11:50:00,
2013-11-27 07:00:00,55.4,52.2,29.80,North,32767,5.0,5.0,89,0.00,,,0.10,Wunderground v.1.15,2013-11-27 12:00:00,
2013-11-27 07:10:00,54.8,51.6,29.80,North,32767,6.0,6.0,89,0.00,,,0.10,Wunderground v.1.15,2013-11-27 12:10:00,
2013-11-27 07:15:00,54.6,51.7,29.80,North,32767,4.0,18.0,90,0.00,,,0.10,Wunderground v.1.15,2013-11-27 12:15:00,
2013-11-27 07:25:00,54.3,51.7,29.80,North,32767,2.0,3.0,91,0.00,,,0.10,Wunderground v.1.15,2013-11-27 12:25:00,
2013-11-27 07:35:00,54.1,51.5,29.80,North,32767,3.0,3.0,91,0.00,,,0.10,Wunderground v.1.15,2013-11-27 12:35:00,
2013-11-27 07:45:00,54.0,51.7,29.80,North,32767,2.0,5.0,92,0.00,,,0.10,Wunderground v.1.15,2013-11-27 12:45:00,
2013-11-27 07:55:00,54.0,51.7,29.81,North,32767,3.0,3.0,92,0.00,,,0.10,Wunderground v.1.15,2013-11-27 12:55:00,
2013-11-27 08:00:00,53.9,51.3,29.82,North,32767,2.0,3.0,91,0.00,,,0.10,Wunderground v.1.15,2013-11-27 13:00:00,
2013-11-27 08:10:00,53.9,51.6,29.82,North,32767,3.0,3.0,92,0.00,,,0.10,Wunderground v.1.15,2013-11-27 13:10:00,
2013-11-27 08:15:00,53.9,51.6,29.82,North,32767,3.0,4.0,92,0.00,,,0.10,Wunderground v.1.15,2013-11-27 13:15:00,
2013-11-27 08:25:00,53.9,51.3,29.83,North,32767,3.0,15.0,91,0.00,,,0.10,Wunderground v.1.15,2013-11-27 13:25:00,
2013-11-27 08:30:00,53.9,51.3,29.83,North,32767,3.0,3.0,91,0.00,,,0.10,Wunderground v.1.15,2013-11-27 13:30:00,
2013-11-27 08:40:00,53.8,50.9,29.84,North,32767,4.0,6.0,90,0.00,,,0.10,Wunderground v.1.15,2013-11-27 13:40:00,
2013-11-27 08:45:00,53.9,51.0,29.85,North,32767,4.0,6.0,90,0.00,,,0.10,Wunderground v.1.15,2013-11-27 13:45:00,
2013-11-27 08:55:00,53.8,50.9,29.85,North,32767,4.0,5.0,90,0.00,,,0.10,Wunderground v.1.15,2013-11-27 13:55:00,
2013-11-27 09:05:00,53.7,51.1,29.86,North,32767,3.0,6.0,91,0.00,,,0.10,Wunderground v.1.15,2013-11-27 14:05:00,
2013-11-27 09:15:00,53.5,51.5,29.87,North,32767,3.0,8.0,93,0.00,,,0.10,Wunderground v.1.15,2013-11-27 14:15:00,
2013-11-27 09:20:00,53.4,51.4,29.87,North,32767,3.0,8.0,93,0.00,,,0.10,Wunderground v.1.15,2013-11-27 14:20:00,
2013-11-27 09:30:00,53.6,51.3,29.87,North,32767,5.0,5.0,92,0.00,,,0.10,Wunderground v.1.15,2013-11-27 14:30:00,
2013-11-27 09:35:00,54.0,51.4,29.88,North,32767,3.0,5.0,91,0.00,,,0.10,Wunderground v.1.15,2013-11-27 14:35:00,
2013-11-27 09:45:00,54.3,50.8,29.88,North,32767,4.0,7.0,88,0.00,,,0.10,Wunderground v.1.15,2013-11-27 14:45:00,
2013-11-27 09:50:00,54.4,50.9,29.88,North,32767,5.0,5.0,88,0.00,,,0.10,Wunderground v.1.15,2013-11-27 14:50:00,
2013-11-27 10:00:00,54.9,50.5,29.89,North,32767,3.0,5.0,85,0.00,,,0.10,Wunderground v.1.15,2013-11-27 15:00:00,
2013-11-27 10:10:00,55.0,50.3,29.90,North,32767,5.0,11.0,84,0.00,,,0.10,Wunderground v.1.15,2013-11-27 15:10:00,
2013-11-27 10:20:00,54.6,49.9,29.91,North,32767,5.0,5.0,84,0.00,,,0.10,Wunderground v.1.15,2013-11-27 15:20:00,
2013-11-27 10:25:00,54.7,50.0,29.91,North,32767,3.0,5.0,84,0.00,,,0.10,Wunderground v.1.15,2013-11-27 15:25:00,
2013-11-27 10:35:00,54.2,49.5,29.92,North,32767,4.0,5.0,84,0.00,,,0.10,Wunderground v.1.15,2013-11-27 15:35:00,
2013-11-27 10:40:00,54.4,49.0,29.92,North,32767,4.0,4.0,82,0.00,,,0.10,Wunderground v.1.15,2013-11-27 15:40:00,
2013-11-27 10:50:00,54.1,48.4,29.93,North,32767,5.0,6.0,81,0.00,,,0.10,Wunderground v.1.15,2013-11-27 15:50:00,
2013-11-27 10:55:00,53.7,49.0,29.93,North,32767,5.0,6.0,84,0.00,,,0.10,Wunderground v.1.15,2013-11-27 15:55:00,
2013-11-27 11:00:00,53.2,48.2,29.93,North,32767,5.0,9.0,83,0.00,,,0.10,Wunderground v.1.15,2013-11-27 16:00:00,
2013-11-27 11:10:00,53.4,47.7,29.93,North,32767,5.0,11.0,81,0.00,,,0.10,Wunderground v.1.15,2013-11-27 16:10:00,
2013-11-27 11:20:00,53.7,47.7,29.94,North,32767,5.0,11.0,80,0.00,,,0.10,Wunderground v.1.15,2013-11-27 16:20:00,
2013-11-27 11:30:00,53.3,47.6,29.94,North,32767,5.0,6.0,81,0.00,,,0.10,Wunderground v.1.15,2013-11-27 16:30:00,
2013-11-27 11:40:00,53.2,48.2,29.94,North,32767,6.0,6.0,83,0.00,,,0.10,Wunderground v.1.15,2013-11-27 16:40:00,
2013-11-27 11:50:00,53.0,48.0,29.94,North,32767,4.0,5.0,83,0.00,,,0.10,Wunderground v.1.15,2013-11-27 16:50:00,
2013-11-27 11:55:00,52.6,46.9,29.94,North,32767,5.0,10.0,81,0.00,,,0.10,Wunderground v.1.15,2013-11-27 16:55:00,
2013-11-27 12:05:00,52.2,46.9,29.95,North,32767,5.0,10.0,82,0.00,,,0.10,Wunderground v.1.15,2013-11-27 17:05:00,
2013-11-27 12:15:00,52.2,45.9,29.95,North,32767,6.0,14.0,79,0.00,,,0.10,Wunderground v.1.15,2013-11-27 17:15:00,
2013-11-27 12:25:00,52.3,45.6,29.94,North,32767,6.0,11.0,78,0.00,,,0.10,Wunderground v.1.15,2013-11-27 17:25:00,
2013-11-27 12:35:00,51.9,44.9,29.94,North,32767,7.0,10.0,77,0.00,,,0.10,Wunderground v.1.15,2013-11-27 17:35:00,
2013-11-27 12:40:00,52.1,45.1,29.94,North,32767,7.0,7.0,77,0.00,,,0.10,Wunderground v.1.15,2013-11-27 17:40:00,
2013-11-27 12:50:00,51.8,45.2,29.94,North,32767,5.0,5.0,78,0.00,,,0.10,Wunderground v.1.15,2013-11-27 17:50:00,
2013-11-27 12:55:00,51.6,45.3,29.95,North,32767,5.0,5.0,79,0.00,,,0.10,Wunderground v.1.15,2013-11-27 17:55:00,
2013-11-27 13:00:00,51.9,45.6,29.95,North,32767,4.0,9.0,79,0.00,,,0.10,Wunderground v.1.15,2013-11-27 18:00:00,
2013-11-27 13:10:00,51.6,45.6,29.95,North,32767,5.0,5.0,80,0.00,,,0.10,Wunderground v.1.15,2013-11-27 18:10:00,
2013-11-27 13:15:00,51.8,46.2,29.95,North,32767,5.0,7.0,81,0.00,,,0.10,Wunderground v.1.15,2013-11-27 18:15:00,
2013-11-27 13:20:00,51.5,45.9,29.95,North,32767,4.0,14.0,81,0.00,,,0.10,Wunderground v.1.15,2013-11-27 18:20:00,
2013-11-27 13:30:00,51.1,45.5,29.95,North,32767,5.0,5.0,81,0.00,,,0.10,Wunderground v.1.15,2013-11-27 18:30:00,
2013-11-27 13:35:00,51.0,45.4,29.95,North,32767,5.0,5.0,81,0.00,,,0.10,Wunderground v.1.15,2013-11-27 18:35:00,
2013-11-27 13:45:00,50.3,44.7,29.95,North,32767,5.0,8.0,81,0.00,,,0.10,Wunderground v.1.15,2013-11-27 18:45:00,
2013-11-27 13:55:00,49.7,44.7,29.96,North,32767,6.0,6.0,83,0.00,,,0.10,Wunderground v.1.15,2013-11-27 18:55:00,
2013-11-27 14:00:00,49.7,44.7,29.96,North,32767,5.0,5.0,83,0.00,,,0.10,Wunderground v.1.15,2013-11-27 19:00:00,
2013-11-27 14:10:00,49.0,43.7,29.97,North,32767,5.0,19.0,82,0.00,,,0.10,Wunderground v.1.15,2013-11-27 19:10:00,
2013-11-27 14:15:00,48.8,43.5,29.97,North,32767,6.0,19.0,82,0.00,,,0.10,Wunderground v.1.15,2013-11-27 19:15:00,
2013-11-27 14:25:00,48.9,44.0,29.97,North,32767,5.0,19.0,83,0.00,,,0.10,Wunderground v.1.15,2013-11-27 19:25:00,
2013-11-27 14:30:00,48.7,43.8,29.97,North,32767,5.0,5.0,83,0.00,,,0.10,Wunderground v.1.15,2013-11-27 19:30:00,
2013-11-27 14:40:00,49.0,42.8,29.98,North,32767,3.0,8.0,79,0.00,,,0.10,Wunderground v.1.15,2013-11-27 19:40:00,
2013-11-27 14:45:00,48.7,42.1,29.98,North,32767,4.0,8.0,78,0.00,,,0.10,Wunderground v.1.15,2013-11-27 19:45:00,
2013-11-27 14:55:00,48.7,41.8,29.98,North,32767,5.0,5.0,77,0.00,,,0.10,Wunderground v.1.15,2013-11-27 19:55:00,
2013-11-27 15:00:00,48.8,42.2,29.99,North,32767,4.0,4.0,78,0.00,,,0.10,Wunderground v.1.15,2013-11-27 20:00:00,
2013-11-27 15:10:00,48.6,41.7,29.99,North,32767,5.0,5.0,77,0.00,,,0.10,Wunderground v.1.15,2013-11-27 20:10:00,
2013-11-27 15:20:00,48.1,41.2,30.00,North,32767,5.0,16.0,77,0.00,,,0.10,Wunderground v.1.15,2013-11-27 20:20:00,
2013-11-27 15:25:00,48.0,41.1,30.00,North,32767,4.0,16.0,77,0.00,,,0.10,Wunderground v.1.15,2013-11-27 20:25:00,
2013-11-27 15:35:00,47.9,41.0,30.00,North,32767,4.0,5.0,77,0.00,,,0.10,Wunderground v.1.15,2013-11-27 20:35:00,
2013-11-27 15:40:00,48.1,41.9,30.00,North,32767,3.0,7.0,79,0.00,,,0.10,Wunderground v.1.15,2013-11-27 20:40:00,
2013-11-27 15:50:00,47.6,41.1,30.01,North,32767,4.0,4.0,78,0.00,,,0.10,Wunderground v.1.15,2013-11-27 20:50:00,
2013-11-27 15:55:00,47.6,41.4,30.01,North,32767,4.0,12.0,79,0.00,,,0.10,Wunderground v.1.15,2013-11-27 20:55:00,
2013-11-27 16:05:00,47.3,40.1,30.02,North,32767,5.0,10.0,76,0.00,,,0.10,Wunderground v.1.15,2013-11-27 21:05:00,
2013-11-27 16:15:00,47.1,39.9,30.03,North,32767,4.0,10.0,76,0.00,,,0.10,Wunderground v.1.15,2013-11-27 21:15:00,
2013-11-27 16:25:00,47.1,39.6,30.03,North,32767,4.0,10.0,75,0.00,,,0.10,Wunderground v.1.15,2013-11-27 21:25:00,
2013-11-27 16:35:00,47.0,39.1,30.04,North,32767,5.0,10.0,74,0.00,,,0.10,Wunderground v.1.15,2013-11-27 21:35:00,
2013-11-27 16:45:00,46.6,39.1,30.04,North,32767,3.0,7.0,75,0.00,,,0.10,Wunderground v.1.15,2013-11-27 21:45:00,
2013-11-27 16:50:00,46.4,38.6,30.05,North,32767,4.0,5.0,74,0.00,,,0.10,Wunderground v.1.15,2013-11-27 21:50:00,
2013-11-27 17:00:00,46.2,38.4,30.05,North,32767,4.0,4.0,74,0.00,,,0.10,Wunderground v.1.15,2013-11-27 22:00:00,
2013-11-27 17:10:00,45.7,38.6,30.06,North,32767,2.0,14.0,76,0.00,,,0.10,Wunderground v.1.15,2013-11-27 22:10:00,
2013-11-27 17:15:00,45.3,38.2,30.07,North,32767,3.0,14.0,76,0.00,,,0.10,Wunderground v.1.15,2013-11-27 22:15:00,
2013-11-27 17:25:00,44.8,38.4,30.07,North,32767,2.0,3.0,78,0.00,,,0.10,Wunderground v.1.15,2013-11-27 22:25:00,
2013-11-27 17:35:00,44.3,38.5,30.08,North,32767,2.0,5.0,80,0.00,,,0.10,Wunderground v.1.15,2013-11-27 22:35:00,
2013-11-27 17:45:00,43.7,38.3,30.09,North,32767,1.0,2.0,81,0.00,,,0.10,Wunderground v.1.15,2013-11-27 22:45:00,
2013-11-27 17:50:00,43.5,38.4,30.09,North,32767,2.0,4.0,82,0.00,,,0.10,Wunderground v.1.15,2013-11-27 22:50:00,
2013-11-27 18:00:00,43.2,38.1,30.10,North,32767,2.0,3.0,82,0.00,,,0.10,Wunderground v.1.15,2013-11-27 23:00:00,
2013-11-27 18:10:00,42.9,38.1,30.11,North,32767,2.0,2.0,83,0.00,,,0.10,Wunderground v.1.15,2013-11-27 23:10:00,
2013-11-27 18:15:00,42.8,37.7,30.11,North,32767,2.0,12.0,82,0.00,,,0.10,Wunderground v.1.15,2013-11-27 23:15:00,
2013-11-27 18:25:00,42.5,37.7,30.11,North,32767,1.0,2.0,83,0.00,,,0.10,Wunderground v.1.15,2013-11-27 23:25:00,
2013-11-27 18:35:00,42.3,37.2,30.12,North,32767,2.0,3.0,82,0.00,,,0.10,Wunderground v.1.15,2013-11-27 23:35:00,
2013-11-27 18:40:00,42.2,37.1,30.13,North,32767,2.0,2.0,82,0.00,,,0.10,Wunderground v.1.15,2013-11-27 23:40:00,
2013-11-27 18:50:00,41.9,37.1,30.13,North,32767,1.0,2.0,83,0.00,,,0.10,Wunderground v.1.15,2013-11-27 23:50:00,
2013-11-27 18:55:00,41.8,37.3,30.14,North,32767,1.0,2.0,84,0.00,,,0.10,Wunderground v.1.15,2013-11-27 23:55:00,
2013-11-27 19:05:00,41.4,36.9,30.14,North,32767,1.0,7.0,84,0.00,,,0.10,Wunderground v.1.15,2013-11-28 00:05:00,
2013-11-27 19:10:00,41.3,36.8,30.15,North,32767,1.0,7.0,84,0.00,,,0.10,Wunderground v.1.15,2013-11-28 00:10:00,
2013-11-27 19:20:00,41.0,36.8,30.15,North,32767,1.0,1.0,85,0.00,,,0.10,Wunderground v.1.15,2013-11-28 00:20:00,
2013-11-27 19:25:00,40.8,36.6,30.15,North,32767,0.0,1.0,85,0.00,,,0.10,Wunderground v.1.15,2013-11-28 00:25:00,
2013-11-27 19:35:00,40.5,36.6,30.16,North,32767,1.0,1.0,86,0.00,,,0.10,Wunderground v.1.15,2013-11-28 00:35:00,
2013-11-27 19:40:00,40.3,36.7,30.16,North,32767,1.0,1.0,87,0.00,,,0.10,Wunderground v.1.15,2013-11-28 00:40:00,
2013-11-27 19:50:00,40.1,36.5,30.17,North,32767,1.0,1.0,87,0.00,,,0.10,Wunderground v.1.15,2013-11-28 00:50:00,
2013-11-27 19:55:00,40.1,36.5,30.17,North,32767,0.0,1.0,87,0.00,,,0.10,Wunderground v.1.15,2013-11-28 00:55:00,
2013-11-27 20:05:00,40.0,36.7,30.17,North,32767,1.0,1.0,88,0.00,,,0.10,Wunderground v.1.15,2013-11-28 01:05:00,
2013-11-27 20:15:00,39.6,36.3,30.18,North,32767,0.0,6.0,88,0.00,,,0.10,Wunderground v.1.15,2013-11-28 01:15:00,
2013-11-27 20:25:00,39.3,36.0,30.18,North,32767,0.0,6.0,88,0.00,,,0.10,Wunderground v.1.15,2013-11-28 01:25:00,
2013-11-27 20:35:00,38.7,35.7,30.19,North,32767,0.0,0.0,89,0.00,,,0.10,Wunderground v.1.15,2013-11-28 01:35:00,
2013-11-27 20:40:00,38.3,35.3,30.19,North,32767,0.0,1.0,89,0.00,,,0.10,Wunderground v.1.15,2013-11-28 01:40:00,
2013-11-27 20:50:00,37.6,34.9,30.20,North,32767,0.0,0.0,90,0.00,,,0.10,Wunderground v.1.15,2013-11-28 01:50:00,
2013-11-27 21:00:00,37.5,35.1,30.21,North,32767,0.0,0.0,91,0.00,,,0.10,Wunderground v.1.15,2013-11-28 02:00:00,
2013-11-27 21:10:00,37.7,35.6,30.21,North,32767,0.0,3.0,92,0.00,,,0.10,Wunderground v.1.15,2013-11-28 02:10:00,
2013-11-27 21:15:00,37.9,35.5,30.22,North,32767,0.0,3.0,91,0.00,,,0.10,Wunderground v.1.15,2013-11-28 02:15:00,
2013-11-27 21:20:00,37.7,34.8,30.22,North,32767,0.0,3.0,89,0.00,,,0.10,Wunderground v.1.15,2013-11-28 02:20:00,
2013-11-27 21:30:00,37.1,34.4,30.23,North,32767,0.0,0.0,90,0.00,,,0.10,Wunderground v.1.15,2013-11-28 02:30:00,
2013-11-27 21:35:00,36.9,34.5,30.23,North,32767,0.0,0.0,91,0.00,,,0.10,Wunderground v.1.15,2013-11-28 02:35:00,
2013-11-27 21:45:00,36.8,34.7,30.23,North,32767,0.0,0.0,92,0.00,,,0.10,Wunderground v.1.15,2013-11-28 02:45:00,
2013-11-27 21:55:00,37.1,35.0,30.24,North,32767,0.0,0.0,92,0.00,,,0.10,Wunderground v.1.15,2013-11-28 02:55:00,
2013-11-27 22:00:00,37.4,35.0,30.24,North,32767,0.0,3.0,91,0.00,,,0.10,Wunderground v.1.15,2013-11-28 03:00:00,
2013-11-27 22:10:00,37.9,34.9,30.24,North,32767,0.0,2.0,89,0.00,,,0.10,Wunderground v.1.15,2013-11-28 03:10:00,
2013-11-27 22:15:00,38.0,35.0,30.24,North,32767,0.0,2.0,89,0.00,,,0.10,Wunderground v.1.15,2013-11-28 03:15:00,
2013-11-27 22:20:00,37.7,34.8,30.24,North,32767,0.0,1.0,89,0.00,,,0.10,Wunderground v.1.15,2013-11-28 03:20:00,
2013-11-27 22:30:00,37.2,34.5,30.25,North,32767,0.0,0.0,90,0.00,,,0.10,Wunderground v.1.15,2013-11-28 03:30:00,
2013-11-27 22:35:00,37.2,34.5,30.25,North,32767,0.0,0.0,90,0.00,,,0.10,Wunderground v.1.15,2013-11-28 03:35:00,
2013-11-27 22:45:00,37.0,34.3,30.25,North,32767,0.0,1.0,90,0.00,,,0.10,Wunderground v.1.15,2013-11-28 03:45:00,
2013-11-27 22:55:00,37.2,34.3,30.25,North,32767,0.0,1.0,89,0.00,,,0.10,Wunderground v.1.15,2013-11-28 03:55:00,
2013-11-27 23:05:00,37.6,34.1,30.26,North,32767,1.0,1.0,87,0.00,,,0.10,Wunderground v.1.15,2013-11-28 04:05:00,
2013-11-27 23:15:00,37.6,34.1,30.26,North,32767,1.0,3.0,87,0.00,,,0.10,Wunderground v.1.15,2013-11-28 04:15:00,
2013-11-27 23:25:00,37.4,33.6,30.26,North,32767,0.0,1.0,86,0.00,,,0.10,Wunderground v.1.15,2013-11-28 04:25:00,
2013-11-27 23:30:00,37.2,33.4,30.26,North,32767,0.0,0.0,86,0.00,,,0.10,Wunderground v.1.15,2013-11-28 04:30:00,
2013-11-27 23:40:00,36.9,33.4,30.27,North,32767,0.0,0.0,87,0.00,,,0.10,Wunderground v.1.15,2013-11-28 04:40:00,
2013-11-27 23:45:00,36.8,33.3,30.27,North,32767,0.0,1.0,87,0.00,,,0.10,Wunderground v.1.15,2013-11-28 04:45:00,
2013-11-27 23:55:00,36.6,32.8,30.27,North,32767,0.0,1.0,86,0.00,,,0.10,Wunderground v.1.15,2013-11-28 04:55:00,